Location: Unspecified
(9.5456°N, 0.0000°E)
Time: 01:30:59
(UTC+00:00)

DIWATA 2B (PO-101) - Visible Passes

Search period start: 04 April 2026 00:00
Search period end: 14 April 2026 00:00
Orbit: 557 x 576 km, 98.1° (Epoch: 29 March)

Date Brightness Start Highest point End Pass type
(mag) Time Alt. Az. Time Alt. Az. Time Alt. Az.
6 Apr ? 18:25:20 10° N 18:29:22 77° WNW 18:33:26 10° SSW visible
7 Apr ? 18:26:06 10° N 18:30:09 76° W 18:34:12 10° SSW visible
8 Apr ? 18:26:53 10° N 18:30:56 74° WNW 18:34:59 10° SSW visible
9 Apr ? 18:27:39 10° N 18:31:42 73° WNW 18:35:46 10° SSW visible
10 Apr ? 18:28:26 10° N 18:32:28 71° WNW 18:36:32 10° SSW visible
11 Apr ? 18:29:12 10° N 18:33:14 70° WNW 18:37:18 10° SSW visible
12 Apr ? 18:29:58 10° N 18:34:00 69° WNW 18:38:03 10° SSW visible
13 Apr ? 18:30:43 10° N 18:34:46 67° WNW 18:38:48 10° SSW visible
